Regional Weather Roundup
Issued by NWS

Home | Current Version | Previous Version | Text Only | Print | Product List | Glossary Off
Versions: 1 2 3 4 5 6 7 8 9 10 11 12 13 14 15 16 17 18 19 20 21 22 23 24 25 26 27

000
ASUS45 KCYS 191510
RWRWY

WYOMING REGIONAL WEATHER ROUNDUP
NATIONAL WEATHER SERVICE CHEYENNE WY
900 AM MDT SAT APR 19 2014

NOTE:  "FAIR" INDICATES FEW OR NO CLOUDS BELOW 12,000 FEET
WITH NO SIGNIFICANT WEATHER AND/OR OBSTRUCTIONS TO VISIBILITY.

WYZ001-191600-
YELLOWSTONE NATIONAL PARK

CITY           SKY/WX    TMP DP  RH WIND       PRES   REMARKS
LK YELLOWSTONE   N/A     28  17  63 CALM      30.09R
W YELLOWSTONE  NOT AVBL

$$
WYZ002>013-054>058-071-098>099-191600-
NORTHERN WYOMING

CITY           SKY/WX    TMP DP  RH WIND       PRES   REMARKS
JACKSON        SUNNY     34  23  64 N3        30.07R
CODY           SUNNY     43  23  45 CALM      30.00S
GREYBULL       SUNNY     43  32  65 CALM      30.01R
WORLAND        SUNNY     43  31  62 CALM      30.00R
SHERIDAN         N/A     46  21  36 SW10        N/A
BUFFALO        SUNNY     46  10  23 N5        30.05R
GILLETTE       SUNNY     48  25  40 W12       30.03S
HULETT         FAIR      46  18  31 SW7       30.04
NEWCASTLE      FAIR      46  12  25 N10       30.04

$$
WYZ014>020-022>026-101>103-191600-
CENTRAL WYOMING

CITY           SKY/WX    TMP DP  RH WIND       PRES   REMARKS
BIG PINEY      SUNNY     37  16  42 CALM      30.10R
PINEDALE       SUNNY     36  16  44 CALM      30.11S
DUBOIS         FAIR      41   5  22 N12       30.02S
LANDER         MOSUNNY   42  23  46 N3        30.01R
RIVERTON       SUNNY     46  17  31 NE3       30.02R
CASPER         MOSUNNY   43  34  70 VRB3      30.04S
DOUGLAS        MOSUNNY   44  33  65 S3        30.06S

$$
WYZ021-027>030-104>119-191600-
SOUTHERN WYOMING

CITY           SKY/WX    TMP DP  RH WIND       PRES   REMARKS
EVANSTON       CLOUDY    40  32  73 CALM      30.09S
KEMMERER       PTSUNNY   41  18  38 NW5       30.11R
FORT BRIDGER   PTSUNNY   46  20  35 CALM      30.12S
ROCK SPRINGS   MOSUNNY   47  25  42 CALM      30.09R
DIXON          CLOUDY    47  36  64 CALM      30.11S
RAWLINS        MOSUNNY   51  22  31 SW14      30.07F
SARATOGA       FAIR      50  32  50 E5        30.10S
LARAMIE        PTSUNNY   44  31  60 S6        30.08R
CHEYENNE       CLOUDY    43  33  68 NE14      30.06R
TORRINGTON     CLOUDY    48  29  47 NE6       30.05S
PINE BLUFFS    FAIR      45  36  70 N13       30.06R

$$



USA.gov is the U.S. government's official web portal to all federal, state and local government web resources and services.